DW8427 Weather Reports


Display with metric or nautical units.
time (UTC)temp
F
wind
direction
speed
MPH
gust
MPH
rain 1hr
in
rain 24hr
in
rain mn
in
humidity
%
barometer
mb
20260510093103 59 107 0.0 4.0 0.00 0.00 0.00 77 1012.0
20260510091547 60 151 0.0 3.0 0.00 0.00 0.00 76 1011.9
20260510090049 61 138 0.0 5.0 0.00 0.00 0.00 75 1011.8
20260510084544 62 143 1.0 4.0 0.00 0.00 0.00 74 1011.7
20260510083045 62 139 0.0 2.0 0.00 0.00 0.00 73 1011.6
20260510081546 63 113 0.0 1.0 0.00 0.00 0.00 73 1011.8
20260510080034 63 110 0.0 2.0 0.00 0.00 0.00 72 1011.6
20260510074531 64 136 0.0 6.0 0.00 0.00 0.00 71 1011.5
20260510073028 64 153 0.0 0.0 0.00 0.00 0.00 70 1011.9
20260510071526 65 122 0.0 3.0 0.00 0.00 0.00 70 1011.9
20260510070026 65 85 0.0 5.0 0.00 0.00 0.00 70 1011.9
20260510064534 65 141 0.0 5.0 0.00 0.00 0.00 71 1011.8
20260510063036 65 119 0.0 3.0 0.00 0.00 0.00 71 1011.8
20260510061530 66 121 1.0 7.0 0.00 0.00 0.00 72 1011.9
20260510060038 66 67 0.0 4.0 0.00 0.00 0.00 72 1011.8
20260510054524 67 135 2.0 5.0 0.00 0.00 0.00 71 1011.8
20260510053036 68 129 0.0 7.0 0.00 0.00 0.00 70 1011.7
20260510051524 69 106 0.0 6.0 0.00 0.00 0.00 70 1011.5
20260510050019 71 122 2.0 6.0 0.00 0.00 0.00 69 1011.4
20260510044539 71 131 0.0 4.0 0.00 0.00 0.00 68 1011.3
20260510043019 72 141 0.0 4.0 0.00 0.00 0.00 69 1011.2
20260510041518 73 129 0.0 1.0 0.00 0.00 0.00 67 1011.1
20260510040031 74 124 1.0 5.0 0.00 0.00 0.00 66 1011.0
20260510034517 75 133 0.0 5.0 0.00 0.00 0.00 65 1010.8
20260510033017 76 106 0.0 2.0 0.00 0.00 0.00 64 1010.6
20260510031517 77 94 0.0 5.0 0.00 0.00 0.00 61 1010.5
20260510030016 79 120 0.0 4.0 0.00 0.00 0.00 60 1010.3
20260510024515 81 144 0.0 5.0 0.00 0.00 0.00 58 1010.2
20260510023014 82 160 0.0 4.0 0.00 0.00 0.00 55 1010.1
20260510021514 83 98 1.0 10.0 0.00 0.00 0.00 53 1010.1
20260510020019 84 79 1.0 6.0 0.00 0.00 0.00 50 1010.1
20260510014511 86 123 0.0 5.0 0.00 0.00 0.00 49 1010.0
20260510013011 88 141 1.0 4.0 0.00 0.00 0.00 44 1009.9
20260510011514 89 150 0.0 1.0 0.00 0.00 0.00 38 1010.0
20260510010008 89 82 0.0 2.0 0.00 0.00 0.00 39 1009.9
20260510004508 90 141 0.0 2.0 0.00 0.00 0.00 37 1010.1
20260510003005 89 110 0.0 1.0 0.00 0.00 0.00 40 1010.1
20260510001504 90 168 0.0 1.0 0.00 0.00 0.00 40 1010.2
20260510000001 90 150 0.0 1.0 0.00 0.00 0.00 41 1010.4
20260509234601 89 123 0.0 5.0 0.00 0.00 0.00 42 1010.5
20260509233103 89 67 0.0 1.0 0.00 0.00 0.00 42 1010.6
20260509231555 87 110 1.0 6.0 0.00 0.00 0.00 43 1010.6
20260509230051 88 82 0.0 5.0 0.00 0.00 0.00 44 1010.8
20260509224549 87 203 0.0 4.0 0.00 0.00 0.00 45 1011.0
20260509223050 87 248 0.0 5.0 0.00 0.00 0.00 46 1011.1
20260509221544 88 230 0.0 2.0 0.00 0.00 0.00 46 1011.3
20260509220041 86 86 0.0 5.0 0.00 0.00 0.00 48 1011.4
20260509214536 86 153 0.0 3.0 0.00 0.00 0.00 49 1011.7
20260509213034 85 225 0.0 6.0 0.00 0.00 0.00 48 1012.0
20260509211532 85 146 1.0 5.0 0.00 0.00 0.00 49 1012.1
20260509210034 85 110 0.0 1.0 0.00 0.00 0.00 50 1012.2
20260509204527 83 321 0.0 5.0 0.00 0.00 0.00 52 1012.3
20260509203028 82 127 0.0 5.0 0.00 0.00 0.00 54 1012.4
20260509201524 83 235 0.0 5.0 0.00 0.00 0.00 53 1012.6
20260509200021 81 112 0.0 4.0 0.00 0.00 0.00 55 1012.6
20260509194519 82 281 1.0 5.0 0.00 0.00 0.00 53 1012.8
20260509193016 80 78 0.0 4.0 0.00 0.00 0.00 54 1013.0
20260509191513 79 319 0.0 3.0 0.00 0.00 0.00 57 1013.2
20260509190020 80 122 0.0 3.0 0.00 0.00 0.00 54 1013.4
20260509184508 78 103 0.0 4.0 0.00 0.00 0.00 56 1013.6
20260509183007 77 136 1.0 4.0 0.00 0.00 0.00 56 1013.8
20260509181505 77 53 0.0 2.0 0.00 0.00 0.00 58 1013.9
20260509180004 77 137 0.0 3.0 0.00 0.00 0.00 59 1013.9
20260509174603 74 121 0.0 1.0 0.00 0.00 0.00 61 1013.9
20260509173108 73 121 0.0 3.0 0.00 0.00 0.00 62 1014.0
20260509171622 71 82 0.0 5.0 0.00 0.00 0.00 64 1014.1
20260509170053 70 103 0.0 3.0 0.00 0.00 0.00 64 1014.1
20260509164549 69 117 0.0 5.0 0.00 0.00 0.00 67 1014.1
20260509163048 68 102 0.0 3.0 0.00 0.00 0.00 67 1014.1
20260509161549 67 160 0.0 4.0 0.00 0.00 0.00 71 1014.1
20260509160041 65 142 0.0 4.0 0.00 0.00 0.00 71 1014.2
20260509154538 64 136 0.0 1.0 0.00 0.00 0.00 74 1014.1
20260509153039 62 136 1.0 3.0 0.00 0.00 0.00 76 1014.2
20260509151536 62 128 1.0 3.0 0.00 0.00 0.00 76 1014.2
20260509150034 61 105 0.0 3.0 0.00 0.00 0.00 76 1014.2
20260509144556 60 99 0.0 2.0 0.00 0.00 0.00 77 1014.2
20260509143043 59 133 0.0 3.0 0.00 0.00 0.00 78 1014.2
20260509141631 58 134 1.0 3.0 0.00 0.00 0.00 79 1014.1
20260509140030 57 136 0.0 2.0 0.00 0.00 0.00 81 1014.0
20260509134531 56 129 0.0 0.0 0.00 0.00 0.00 83 1014.1
20260509133033 56 98 0.0 0.0 0.00 0.00 0.00 83 1014.1
20260509131537 56 98 0.0 0.0 0.00 0.00 0.00 83 1014.0
20260509130027 56 98 0.0 0.0 0.00 0.00 0.00 83 1014.0
20260509124529 56 97 0.0 0.0 0.00 0.00 0.00 83 1013.8
20260509123025 56 99 0.0 0.0 0.00 0.00 0.00 83 1013.8
20260509121527 57 113 0.0 0.0 0.00 0.00 0.00 82 1013.7
20260509120120 57 118 0.0 0.0 0.00 0.00 0.00 83 1013.7
20260509114519 57 98 0.0 0.0 0.00 0.00 0.00 82 1013.7
20260509113018 58 111 0.0 0.0 0.00 0.00 0.00 82 1013.4
20260509111516 58 113 0.0 1.0 0.00 0.00 0.00 81 1013.5
20260509110014 58 108 0.0 1.0 0.00 0.00 0.00 81 1013.4
20260509104528 58 86 0.0 1.0 0.00 0.00 0.00 81 1013.4
20260509103010 59 107 0.0 1.0 0.00 0.00 0.00 81 1013.5
20260509101509 59 146 0.0 2.0 0.00 0.00 0.00 80 1013.7
20260509100010 59 113 0.0 0.0 0.00 0.00 0.00 82 1013.6
20260509094516 59 124 0.0 0.0 0.00 0.00 0.00 82 1013.6